Regional Weather Roundup
Issued by NWS

Home | Current Version | Previous Version | Text Only | Print | Product List | Glossary Off
Versions: 1 2 3 4 5 6 7 8 9 10 11 12 13 14 15 16 17 18 19 20 21 22 23 24 25 26 27 28 29 30 31 32 33 34 35 36 37 38 39 40 41 42 43 44 45 46 47 48 49 50

000
ASUS45 KABQ 271001
RWRNM
NEW MEXICO REGIONAL WEATHER ROUNDUP
NATIONAL WEATHER SERVICE ALBUQUERQUE NM
400 AM MDT WED MAY 27 2015

NOTE: "FAIR" MEANS FEW OR NO CLOUDS BELOW 12,000 FEET AGL WITH NO
       SIGNIFICANT WEATHER OR OBSTRUCTIONS TO VISION.

      THIS PRODUCT IS RELEASED AS TWO VERSIONS.  ONE VERSION NEAR
      THE TOP OF THE HOUR CONTAINING PRELIMINARY DATA FROM ALBUQUERQUE
      AND OTHER STATIONS.  A FINAL VERSION WITH ADDITIONAL DATA IS
      ISSUED ABOUT 10 MINUTES AFTER THE HOUR.

NMZ501-503-504-510>518-271100-
NORTHWEST PLATEAU/NORTHCENTRAL MOUNTAINS

CITY           SKY/WX    TMP DP  RH WIND       PRES   REMARKS
FARMINGTON     CLEAR     50  43  77 NE6       30.12R
SANTA FE       PTCLDY    48  41  76 N6        30.16S
TAOS           PTCLDY    43  30  61 N7        30.23S
ANGEL FIRE     FAIR      37  34  87 CALM      30.29S

$$
NMZ402-403-502-505>509-271100-
WESTCENTRAL MOUNTAINS/SOUTHWEST MOUNTAINS

CITY           SKY/WX    TMP DP  RH WIND       PRES   REMARKS
GALLUP         PTCLDY    42  34  73 NE6       30.18R
GRANTS         PTCLDY    42  32  68 CALM      30.20S
SILVER CITY      N/A     50  19  29 N8        30.12S

$$
NMZ407-409-411-412-271100-
SOUTHERN DESERTS

CITY           SKY/WX    TMP DP  RH WIND       PRES   REMARKS
LORDSBURG      FAIR      59  21  23 CALM      30.06R
DEMING         CLEAR     50  24  36 CALM      30.06R
HOLLOMAN AFB   CLEAR     58  34  40 CALM      30.03R
ALAMOGORDO     CLEAR     55  28  35 NE7       30.05R
T OR C         CLEAR     60  24  25 W5        30.07R

$$
NMZ519>523-271100-
CENTRAL VALLEYS/CENTRAL HIGHLANDS

CITY           SKY/WX    TMP DP  RH WIND       PRES   REMARKS
ALBUQUERQUE    PTCLDY    60  45  57 NE8       30.12R
DOUBLE EAGLE   PTCLDY    49  44  80 CALM      30.15R
MORIARTY ARPT  FAIR      48  42  81 CALM      30.17S
CLINES CORNERS MOCLDY    51  39  63 E5        30.19S
BELEN          FAIR      56  48  75 CALM      30.12R
SOCORRO        NOT AVBL

$$
NMZ524>526-539-540-271100-
SOUTHCENTRAL MOUNTAINS

CITY           SKY/WX    TMP DP  RH WIND       PRES   REMARKS
RUIDOSO        NOT AVBL

$$
NMZ527>531-271100-
NORTHEAST HIGHLANDS/NORTHEAST PLAINS

CITY           SKY/WX    TMP DP  RH WIND       PRES   REMARKS
LAS VEGAS      CLOUDY    52  39  61 N8        30.20R
RATON          CLEAR     47  43  86 CALM      30.18R
CLAYTON        CLEAR     49  45  86 CALM      30.12S

$$
NMZ532>537-271100-
EASTCENTRAL PLAINS

CITY           SKY/WX    TMP DP  RH WIND       PRES   REMARKS
TUCUMCARI      PTCLDY    60  52  74 W6        30.06S
CANNON AFB     NOT AVBL
CLOVIS AIRPORT CLEAR     54  48  82 S6        30.04S

$$
NMZ028-029-538-271100-
SOUTHEAST PLAINS

CITY           SKY/WX    TMP DP  RH WIND       PRES   REMARKS
ROSWELL        CLEAR     52  44  74 SW3       30.03R
ARTESIA        CLEAR     59  37  44 S8        30.04R
CARLSBAD       CLEAR     60  43  53 CALM      30.01S
HOBBS          PTCLDY    61  61 100 CALM      30.06R FOG


$$


USA.gov is the U.S. government's official web portal to all federal, state and local government web resources and services.